Location: Cassagne
(43.1218°N, 0.9901°E)
Time: 05:45:42
(UTC+00:00)

Meteor PRIRODA - Pass Details

Date: 17 February 2020
Orbit: 490 x 512 km, 97.5° (Epoch: 28 March)

Event Time Altitude Azimuth Distance (km) Brightness Sun altitude
Rises 05:06:02 0° 10° (N) 2,620 7.4 -19.9°
Reaches altitude 10° 05:08:09 10° 8° (N) 1,727 6.5 -19.5°
Maximum altitude 05:11:51 71° 284° (WNW) 536 3.5 -18.9°
Enters shadow 05:14:07 22° 204° (SSW) 1,141 5.2 -18.5°
